Time,TemperatureF,DewpointF,PressureIn,WindDirection,WindDirectionDegrees,WindSpeedMPH,WindSpeedGustMPH,Humidity,HourlyPrecipIn,Conditions,Clouds,dailyrainin,SoftwareType,DateUTC
2013-09-18 00:14:00,48.0,39.0,30.32,ESE,107,0.0,0.0,71,0.00,,,0.00,,2013-09-18 04:14:00,
2013-09-18 00:24:00,48.0,39.0,30.32,ESE,106,0.0,0.0,72,0.00,,,0.00,,2013-09-18 04:24:00,
2013-09-18 00:54:00,49.0,40.0,30.33,ESE,106,0.0,1.0,71,0.00,,,0.00,,2013-09-18 04:54:00,
2013-09-18 01:23:00,47.0,38.0,30.32,ESE,106,0.0,0.0,72,0.00,,,0.00,,2013-09-18 05:23:00,
2013-09-18 01:53:00,46.0,39.0,30.32,ESE,107,0.0,0.0,75,0.00,,,0.00,,2013-09-18 05:53:00,
2013-09-18 02:22:00,45.0,38.0,30.32,ESE,106,0.0,0.0,77,0.00,,,0.00,,2013-09-18 06:22:00,
2013-09-18 02:52:00,43.0,36.0,30.32,ESE,106,0.0,0.0,77,0.00,,,0.00,,2013-09-18 06:52:00,
2013-09-18 03:12:00,43.0,37.0,30.31,ESE,106,0.0,0.0,79,0.00,,,0.00,,2013-09-18 07:12:00,
2013-09-18 03:22:00,43.0,37.0,30.31,ESE,107,0.0,0.0,79,0.00,,,0.00,,2013-09-18 07:22:00,
2013-09-18 03:52:00,43.0,37.0,30.30,ESE,106,0.0,0.0,80,0.00,,,0.00,,2013-09-18 07:52:00,
2013-09-18 04:12:00,43.0,37.0,30.30,ESE,107,0.0,0.0,80,0.00,,,0.00,,2013-09-18 08:12:00,
2013-09-18 04:23:00,43.0,37.0,30.30,ESE,106,0.0,0.0,80,0.00,,,0.00,,2013-09-18 08:23:00,
2013-09-18 04:52:00,42.0,36.0,30.30,ESE,107,0.0,0.0,80,0.00,,,0.00,,2013-09-18 08:52:00,
2013-09-18 05:22:00,41.0,36.0,30.30,ESE,106,0.0,0.0,81,0.00,,,0.00,,2013-09-18 09:22:00,
2013-09-18 05:53:00,41.0,36.0,30.30,ESE,106,0.0,0.0,81,0.00,,,0.00,,2013-09-18 09:53:00,
2013-09-18 06:13:00,41.0,36.0,30.30,ESE,106,0.0,0.0,81,0.00,,,0.00,,2013-09-18 10:13:00,
2013-09-18 06:23:00,41.0,36.0,30.30,ESE,107,0.0,0.0,81,0.00,,,0.00,,2013-09-18 10:23:00,
2013-09-18 06:53:00,41.0,36.0,30.30,ESE,106,0.0,1.0,82,0.00,,,0.00,,2013-09-18 10:53:00,
2013-09-18 07:12:00,41.0,36.0,30.31,ESE,107,0.0,0.0,82,0.00,,,0.00,,2013-09-18 11:12:00,
2013-09-18 07:22:00,41.0,36.0,30.31,ESE,107,0.0,2.0,82,0.00,,,0.00,,2013-09-18 11:22:00,
2013-09-18 07:52:00,42.0,37.0,30.32,ESE,106,0.0,2.0,82,0.00,,,0.00,,2013-09-18 11:52:00,
2013-09-18 08:12:00,42.0,37.0,30.32,ESE,106,0.0,3.0,82,0.00,,,0.00,,2013-09-18 12:12:00,
2013-09-18 08:22:00,43.0,38.0,30.32,ESE,106,0.0,2.0,82,0.00,,,0.00,,2013-09-18 12:22:00,
2013-09-18 08:52:00,46.0,41.0,30.32,ESE,106,1.0,3.0,82,0.00,,,0.00,,2013-09-18 12:52:00,
2013-09-18 09:11:00,48.0,43.0,30.32,ESE,106,0.0,1.0,82,0.00,,,0.00,,2013-09-18 13:11:00,